Regional Weather Roundup
Issued by NWS Sioux Falls, SD

Home | Current Version | Previous Version | Graphics & Text | Print | Product List | Glossary Off
Versions: 1 2 3 4 5 6 7 8 9 10 11 12 13 14 15 16 17 18 19 20 21 22 23 24 25 26 27 28 29 30 31 32 33 34 35 36 37 38 39 40 41 42 43 44 45 46 47 48 49 50

000
ASUS43 KFSD 301510
RWRFSD

WEATHER ROUNDUP FOR SE SOUTH DAKOTA/SW MINNESOTA/NW IOWA
NATIONAL WEATHER SERVICE SIOUX FALLS SD
1000 AM CDT SUN APR 30 2017

NOTE: "FAIR" INDICATES FEW OR NO CLOUDS BELOW 12,000 FEET WITH NO
SIGNIFICANT WEATHER AND OR OBSTRUCTIONS TO VISIBILITY.


SDZ038>040-050-052>070-301600-
SOUTHEAST SOUTH DAKOTA

CITY           SKY/WX    TMP DP  RH WIND       PRES   REMARKS
BROOKINGS      CLOUDY    41  27  57 NE14      29.98F
CHAMBERLAIN    CLOUDY    46  25  44 N13G21    29.95F
HURON          PTSUNNY   45  28  51 NE15      29.98F
MADISON        FAIR      39  28  65 NE20      29.96F
MITCHELL       CLOUDY    45  28  51 NE20      29.96F
SIOUX FALLS    LGT RAIN  37  37 100 NE15      29.96F
WINNER         FAIR      45  27  49 N18       29.95F
YANKTON        CLOUDY    37  34  87 N17G24    29.92S
$$

MNZ071-072-080-081-089-090-097-098-301600-
SOUTHWEST MINNESOTA

CITY           SKY/WX    TMP DP  RH WIND       PRES   REMARKS
FAIRMONT       LGT RAIN  39  36  89 NE18      29.93F
JACKSON        CLOUDY    36  36 100 NE16G22   29.94R
LUVERNE        LGT RAIN  36  34  93 NE12G17   29.95S
MARSHALL       CLOUDY    42  27  55 E13       30.02S
MONTEVIDEO     CLOUDY    45  25  45 E15       30.04R
PIPESTONE      LGT RAIN  37  30  75 NE13      29.96F
REDWOOD FALLS  LGT RAIN  40  29  64 NE9       30.01R
TRACY          RAIN      39  34  81 NE14      30.00S
WINDOM         DRIZZLE   37  34  87 NE13      29.96R
WORTHINGTON    LGT RAIN  36  34  93 NE21      29.93F
$$

IAZ001>003-012>014-020>022-031-032-NEZ013-014-SDZ071-301600-
NORTHWEST IOWA

CITY           SKY/WX    TMP DP  RH WIND       PRES   REMARKS
CHEROKEE       LGT RAIN  38  38 100 NE12G22   29.88S
DENISON        MIX PCPN  37  37 100 NE26G33   29.79F
ESTHERVILLE    CLOUDY    38  38 100 NE21      29.91F FOG
ORANGE CITY    RAIN      37  37 100 NE9G17    29.90R
SHELDON        LGT RAIN  37  36  93 NE24G33   29.88F
SIOUX CITY     RAIN      40  39  97 NE16G28   29.87F FOG
SPENCER        LGT RAIN  40  37  89 NE24      29.89F
STORM LAKE     MIX PCPN  37  36  93 NE24G37   29.85F
$$

ABBREVIATIONS USED IN REMARKS
   TC - TEMPERATURE IN CELSIUS
  WCI - WIND CHILL INDEX
   HX - HEAT INDEX
  VSB - VISIBILITY





USA.gov is the U.S. government's official web portal to all federal, state and local government web resources and services.